Weather History for KTVR - November, 2013

Change the Weather History Date:

Friday, November 22, 2013

  Actual Average Record
Temperature  
Mean Temperature 59 °F 54 °F  
Max Temperature 67 °F 65 °F 82 °F (1965)
Min Temperature 51 °F 42 °F 21 °F (1949)
Degree Days  
Heating Degree Days 6 12  
Month to date heating degree days 230 195  
Since 1 July heating degree days 331 297  
Cooling Degree Days 0 0  
Month to date cooling degree days 16 12  
Year to date cooling degree days 2264 2221  
Growing Degree Days 10 (Base 50)    
Moisture  
Dew Point 62 °F    
Average Humidity 94    
Maximum Humidity 100    
Minimum Humidity 87    
Precipitation  
Precipitation 1.22 in 0.18 in 1.41 in (1957)
Month to date precipitation 2.06 3.39  
Year to date precipitation 59.41 47.52  
Sea Level Pressure  
Sea Level Pressure 30.23 in    
Wind  
Wind Speed 7 mph (NNE)    
Max Wind Speed 18 mph    
Max Gust Speed 26 mph    
Visibility 6 miles    
Events Rain    
T = Trace of Precipitation, MM = Missing Value Source: NWS Daily Summary

Daily Weather History Graph

Daily Weather History Graph

Search for Another Location

Airport or City:

Trip Planner

Search our weather history database for the weather conditions in past years. The results will help you decide how hot, cold, wet, or windy it might be!

Date:

Astronomy

Nov. 22, 2013 Rise Set
Actual Time 6:39 AM CST 5:00 PM CST
Civil Twilight 6:13 AM CST 5:26 PM CST
Nautical Twilight 5:43 AM CST 5:56 PM CST
Astronomical Twilight 5:14 AM CST 6:26 PM CST
Moon 9:28 PM CST (11/22) 10:27 AM CST (11/22)
Length of Visible Light 11h 13m
Length of Day
10h 20m
Waning Gibbous, 78% of the Moon is Illuminated
Nov 22
Waning Gibbous
Nov 25
Last Quarter
Dec 2
New
Dec 9
First Quarter
Dec 17
Full

Hourly Weather History & Observations

Time (CST) Temp. Dew Point Humidity Pressure Visibility Wind Dir Wind Speed Gust Speed Precip Events Conditions
12:53 AM 64.9 °F 62.1 °F 90% 30.20 in 7.0 mi SSE 6.9 mph - N/A   Overcast
1:53 AM 64.9 °F 62.1 °F 90% 30.19 in 8.0 mi SSE 8.1 mph - 0.00 in Rain Light Rain
2:53 AM 64.0 °F 63.0 °F 96% 30.19 in 5.0 mi SSE 6.9 mph - 0.05 in Rain Light Rain
3:53 AM 64.0 °F 63.0 °F 96% 30.19 in 5.0 mi SE 4.6 mph - 0.01 in Rain Light Rain
4:53 AM 64.0 °F 64.0 °F 100% 30.18 in 5.0 mi SSE 10.4 mph - 0.01 in   Overcast
5:53 AM 64.9 °F 64.0 °F 97% 30.19 in 5.0 mi South 6.9 mph - 0.00 in Rain Light Rain
6:53 AM 64.9 °F 64.0 °F 97% 30.25 in 5.0 mi North 5.8 mph - 0.00 in Rain Light Rain
7:03 AM 64.9 °F 64.0 °F 97% 30.24 in 1.8 mi North 8.1 mph - 0.10 in Rain Heavy Rain
7:11 AM 64.0 °F 64.0 °F 100% 30.24 in 1.0 mi NNE 6.9 mph - 0.37 in Rain Heavy Rain
7:39 AM 64.0 °F 63.0 °F 96% 30.23 in 2.0 mi East 5.8 mph - 0.90 in Rain Heavy Rain
7:53 AM 64.0 °F 63.0 °F 96% 30.25 in 3.0 mi SE 3.5 mph - 0.93 in Rain Light Rain
8:01 AM 64.0 °F 64.0 °F 100% 30.23 in 5.0 mi SE 3.5 mph - 0.01 in Rain Light Rain
8:46 AM 64.0 °F 63.0 °F 96% 30.24 in 4.0 mi SSE 4.6 mph - 0.06 in Rain Rain
8:53 AM 64.0 °F 64.0 °F 100% 30.27 in 4.0 mi SSE 3.5 mph - 0.07 in Rain Light Rain
9:53 AM 64.9 °F 64.0 °F 97% 30.27 in 7.0 mi SSE 3.5 mph - 0.06 in Rain Light Rain
10:50 AM 66.2 °F 64.4 °F 94% 30.26 in 9.0 mi WSW 3.5 mph - 0.01 in Rain Light Rain
10:53 AM 66.0 °F 64.9 °F 96% 30.28 in 7.0 mi WSW 4.6 mph - 0.02 in Rain Light Rain
11:53 AM 66.9 °F 64.9 °F 93% 30.28 in 10.0 mi West 4.6 mph - 0.01 in Rain Light Rain
12:12 PM 66.9 °F 64.9 °F 93% 30.25 in 9.0 mi West 4.6 mph - 0.00 in Rain Light Rain
12:45 PM 66.0 °F 64.9 °F 96% 30.23 in 10.0 mi WNW 3.5 mph - 0.00 in Rain Light Rain
12:53 PM 66.9 °F 64.9 °F 93% 30.25 in 10.0 mi Calm Calm - 0.00 in Rain Light Rain
1:05 PM 66.9 °F 64.9 °F 93% 30.22 in 10.0 mi Calm Calm - 0.00 in Rain Light Rain
1:23 PM 66.9 °F 64.9 °F 93% 30.22 in 9.0 mi Calm Calm - 0.01 in Rain Light Rain
1:40 PM 66.9 °F 64.9 °F 93% 30.21 in 10.0 mi NE 4.6 mph - 0.02 in Rain Light Rain
1:53 PM 66.0 °F 64.9 °F 96% 30.23 in 10.0 mi North 3.5 mph - 0.02 in Rain Light Rain
2:07 PM 66.9 °F 64.9 °F 93% 30.20 in 10.0 mi North 3.5 mph - 0.00 in Rain Light Rain
2:15 PM 66.0 °F 64.9 °F 96% 30.20 in 10.0 mi NNW 3.5 mph - 0.00 in Rain Light Rain
2:22 PM 66.0 °F 64.9 °F 96% 30.20 in 10.0 mi North 3.5 mph - 0.00 in Rain Light Rain
2:31 PM 66.0 °F 64.9 °F 96% 30.20 in 9.0 mi Variable 4.6 mph - 0.01 in Rain Light Rain
2:41 PM 66.0 °F 64.9 °F 96% 30.20 in 10.0 mi North 4.6 mph - 0.01 in   Overcast
2:53 PM 66.0 °F 64.9 °F 96% 30.22 in 9.0 mi North 5.8 mph - 0.01 in   Overcast
3:04 PM 66.0 °F 64.9 °F 96% 30.21 in 10.0 mi NNW 5.8 mph - 0.00 in Rain Light Rain
3:28 PM 64.9 °F 64.0 °F 97% 30.21 in 2.5 mi North 6.9 mph - 0.00 in   Overcast
3:38 PM 64.9 °F 64.0 °F 97% 30.21 in 1.8 mi North 8.1 mph - 0.00 in   Overcast
3:44 PM 64.9 °F 64.0 °F 97% 30.20 in 2.0 mi North 8.1 mph - 0.00 in   Overcast
3:53 PM 64.9 °F 64.0 °F 97% 30.23 in 2.0 mi North 6.9 mph - 0.00 in   Overcast
3:56 PM 64.9 °F 64.0 °F 97% 30.21 in 1.8 mi North 8.1 mph - N/A   Overcast
4:37 PM 60.1 °F 59.0 °F 96% 30.21 in 2.5 mi North 12.7 mph 21.9 mph 0.00 in Rain Light Rain
4:44 PM 60.1 °F 59.0 °F 96% 30.21 in 4.0 mi North 15.0 mph 20.7 mph 0.00 in   Overcast
4:53 PM 60.1 °F 59.0 °F 96% 30.24 in 4.0 mi North 12.7 mph - 0.00 in   Overcast
5:53 PM 59.0 °F 57.9 °F 96% 30.26 in 6.0 mi North 12.7 mph - N/A   Overcast
6:53 PM 57.9 °F 55.9 °F 93% 30.27 in 6.0 mi North 15.0 mph - N/A   Overcast
7:53 PM 55.9 °F 55.0 °F 97% 30.29 in 9.0 mi North 10.4 mph - N/A   Overcast
8:53 PM 55.0 °F 53.1 °F 93% 30.30 in 9.0 mi North 10.4 mph - 0.00 in Rain Light Rain
9:53 PM 54.0 °F 52.0 °F 93% 30.30 in 8.0 mi NNE 11.5 mph - 0.00 in   Overcast
10:53 PM 53.1 °F 51.1 °F 93% 30.32 in 5.0 mi North 8.1 mph 18.4 mph 0.00 in Rain Light Rain
11:53 PM 51.1 °F 50.0 °F 96% 30.30 in 5.0 mi North 11.5 mph - 0.03 in Rain Light Rain